Stations météo

réclame
Mon MeteoGroup
Ile Rousse, France (7753): Température de l'air & dewpoint: 17.09.2017 21:00:00 - 23.09.2017 21:00:00 (CEST)Ile Rousse, France (7753): Vitesse du vent & gusts: 17.09.2017 21:00:00 - 23.09.2017 21:00:00 (CEST)Ile Rousse, France (7753): Direction du vent: 17.09.2017 21:00:00 - 23.09.2017 21:00:00 (CEST)Ile Rousse, France (7753): reduced air pressure: 17.09.2017 21:00:00 - 23.09.2017 21:00:00 (CEST)Ile Rousse, France (7753): visibility: 17.09.2017 21:00:00 - 23.09.2017 21:00:00 (CEST)Ile Rousse, France (7753): Quantités de précipitations: 17.09.2017 21:00:00 - 23.09.2017 21:00:00 (CEST)
Date & Time tt [°C] td [°C] ff [km/h] ff [knt] fx [km/h] fx [knt] dd ppp [hPa] vv [km] rr [mm]
23.09.2017 21:00:00 18,9 14,8 9 5 13 7 SSE 1019,6 - 0,0
23.09.2017 20:00:00 19,5 14,9 3 2 6 4 NE 1019,6 25 0,0
23.09.2017 19:00:00 20,2 15,0 3 2 14 8 NNW 1019,7 - 0,0
23.09.2017 18:00:00 21,9 15,3 10 5 20 11 WNW 1019,7 - 0,0
23.09.2017 17:00:00 20,6 14,7 13 7 23 12 W 1019,9 25 0,0
23.09.2017 16:00:00 21,3 13,7 13 7 27 14 W 1020,1 - 0,0
23.09.2017 15:00:00 22,1 13,4 16 9 26 14 W 1020,3 - 0,0
23.09.2017 14:00:00 22,1 14,2 15 8 28 15 W 1020,5 25 0,0
23.09.2017 13:00:00 21,9 14,8 20 11 28 15 W 1020,8 - 0,0
23.09.2017 12:00:00 21,5 15,1 16 9 24 13 W 1021,0 - 0,0
23.09.2017 11:00:00 21,2 10,7 8 5 14 8 WNW 1021,0 25 0,0
23.09.2017 10:00:00 20,0 12,2 4 2 9 5 N 1020,9 - 0,0
23.09.2017 09:00:00 19,5 9,7 2 1 7 4 WSW 1020,8 - 0,0
23.09.2017 08:00:00 18,6 10,4 4 2 6 4 W 1020,8 25 0,0
23.09.2017 07:00:00 18,8 10,1 5 3 12 6 SE 1020,5 - 0,0
23.09.2017 06:00:00 18,7 10,5 9 5 13 7 S 1020,5 - 0,0
23.09.2017 05:00:00 18,3 11,8 0 0 10 6 N 1020,6 25 0,0
23.09.2017 04:00:00 18,5 11,8 6 3 14 8 SE 1021,0 - 0,0
23.09.2017 03:00:00 18,2 12,6 12 6 21 11 WSW 1021,4 - 0,0
23.09.2017 02:00:00 18,3 12,3 13 7 18 10 WSW 1021,6 - 0,0
23.09.2017 01:00:00 18,7 12,0 6 3 9 5 W 1021,2 - 0,0
23.09.2017 00:00:00 18,7 11,5 5 3 8 4 E 1021,4 - 0,0
22.09.2017 23:00:00 19,0 11,1 6 4 8 4 E 1021,5 - 0,0
22.09.2017 22:00:00 19,2 12,0 2 1 4 2 NE 1021,4 - 0,0
22.09.2017 21:00:00 19,4 11,7 2 1 4 2 SSE 1021,3 - 0,0
22.09.2017 20:00:00 19,4 11,9 4 2 6 4 E 1021,0 25 0,0
22.09.2017 19:00:00 20,1 12,1 4 2 13 7 NNE 1020,9 - 0,0
22.09.2017 18:00:00 20,8 12,0 9 5 21 11 NNE 1020,6 - 0,0
22.09.2017 17:00:00 20,9 12,6 12 7 21 11 NNE 1020,3 25 0,0
22.09.2017 16:00:00 21,0 11,6 13 7 20 11 NNE 1020,5 - 0,0
22.09.2017 15:00:00 21,0 12,7 13 7 22 12 NNE 1020,8 - 0,0
22.09.2017 14:00:00 20,8 13,2 13 7 21 11 NNE 1021,0 25 0,0
22.09.2017 13:00:00 20,4 13,1 13 7 20 11 NNE 1021,2 - 0,0
22.09.2017 12:00:00 20,2 12,9 11 6 19 10 NNE 1021,2 - 0,0
22.09.2017 11:00:00 18,6 12,1 6 3 14 8 NNW 1021,2 20 0,0
22.09.2017 10:00:00 17,8 13,1 5 3 11 6 W 1020,9 - 0,0
22.09.2017 09:00:00 17,1 13,0 5 3 8 4 W 1020,4 - 0,0
22.09.2017 08:00:00 17,2 12,3 4 2 9 5 E 1019,9 20 0,0
22.09.2017 07:00:00 17,1 12,8 7 4 12 7 ESE 1019,7 - 0,0
22.09.2017 06:00:00 17,2 12,9 10 5 14 8 ESE 1019,8 - 0,0
22.09.2017 05:00:00 17,3 13,0 10 5 11 6 SSE 1020,0 20 0,0
22.09.2017 04:00:00 17,3 12,8 9 5 11 6 S 1020,1 - 0,0
22.09.2017 03:00:00 17,6 13,3 0 0 6 3 N 1020,4 - 0,0
22.09.2017 02:00:00 17,8 13,3 4 2 11 6 SSW 1020,5 - 0,0
22.09.2017 01:00:00 17,8 13,3 6 3 8 4 SSW 1020,2 - 0,0
22.09.2017 00:00:00 18,0 13,5 4 2 9 5 SW 1020,1 - 0,0
21.09.2017 23:00:00 18,0 13,3 6 3 11 6 SW 1020,0 - 0,0
21.09.2017 22:00:00 18,1 13,6 8 4 11 6 SW 1020,0 - 0,0
21.09.2017 21:00:00 18,1 13,6 10 5 14 8 WSW 1019,8 - 0,0
21.09.2017 20:00:00 18,3 13,6 10 6 23 13 W 1019,4 30 0,0
21.09.2017 19:00:00 19,5 14,3 12 7 26 14 W 1019,3 - 0,0
21.09.2017 18:00:00 21,0 13,9 16 9 29 16 W 1019,1 - 0,0
21.09.2017 17:00:00 21,4 12,8 18 10 29 16 W 1019,1 35 0,0
21.09.2017 16:00:00 20,4 13,1 16 9 29 15 W 1019,2 - 0,0
21.09.2017 15:00:00 21,7 13,6 17 9 29 15 W 1019,3 - 0,0
21.09.2017 14:00:00 21,1 12,0 11 6 20 11 NW 1019,6 40 0,0
21.09.2017 13:00:00 20,2 12,2 10 6 21 11 NW 1019,6 - 0,0
21.09.2017 12:00:00 19,0 13,0 10 5 19 10 NW 1019,8 - 0,0
21.09.2017 11:00:00 18,4 13,0 8 4 15 8 NW 1019,7 - 0,0
21.09.2017 10:00:00 17,3 12,6 5 3 13 7 NW 1019,6 - 0,0
21.09.2017 09:00:00 16,7 12,6 9 5 17 9 WSW 1019,1 - 0,0
21.09.2017 08:00:00 16,2 12,2 12 7 17 9 WSW 1018,8 - 0,0
21.09.2017 07:00:00 16,1 11,9 6 3 9 5 W 1018,5 - 0,0
21.09.2017 06:00:00 16,1 11,7 8 4 11 6 S 1018,5 - 0,0
21.09.2017 05:00:00 16,8 12,5 3 1 11 6 NNE 1018,6 30 0,0
21.09.2017 04:00:00 16,9 12,2 4 2 11 6 WSW 1018,5 - 0,0
21.09.2017 03:00:00 17,1 12,0 7 4 11 6 W 1018,5 - 0,0
21.09.2017 02:00:00 16,9 11,8 10 5 17 9 W 1018,5 - 0,0
21.09.2017 01:00:00 16,4 10,3 11 6 16 8 WSW 1018,2 - 0,0
21.09.2017 00:00:00 17,6 9,7 9 5 14 8 ESE 1018,0 - 0,0
20.09.2017 23:00:00 17,3 10,7 9 5 16 9 ESE 1018,2 - 0,0
20.09.2017 22:00:00 17,0 11,7 12 6 24 13 SW 1018,0 - 0,0
20.09.2017 21:00:00 17,2 12,1 9 5 28 15 WSW 1017,6 - 0,0
20.09.2017 20:00:00 17,8 12,5 19 10 26 14 WSW 1017,1 30 0,0
20.09.2017 19:00:00 19,8 12,5 13 7 22 12 W 1016,7 - 0,0
20.09.2017 18:00:00 21,3 12,4 14 8 26 14 W 1016,4 - 0,0
20.09.2017 17:00:00 22,1 11,2 17 9 26 14 W 1016,4 30 0,0
20.09.2017 16:00:00 22,3 11,1 15 8 29 15 WNW 1016,6 - 0,0
20.09.2017 15:00:00 21,9 11,3 18 10 31 17 W 1016,6 - 0,0
20.09.2017 14:00:00 22,2 11,3 16 9 24 13 W 1016,5 30 0,0
20.09.2017 13:00:00 21,8 8,7 13 7 21 11 W 1016,6 - 0,0
20.09.2017 12:00:00 21,3 10,7 12 7 23 13 WNW 1016,6 - 0,0
20.09.2017 11:00:00 19,8 11,0 16 9 25 13 W 1016,4 30 0,0
20.09.2017 10:00:00 19,1 9,3 14 8 23 12 W 1016,1 - 0,0
20.09.2017 09:00:00 17,7 9,1 18 10 29 15 WSW 1015,5 - 0,0
20.09.2017 08:00:00 16,7 9,1 19 10 33 18 WSW 1015,2 55 0,0
20.09.2017 07:00:00 17,1 6,9 22 12 45 25 WSW 1014,8 - 0,0
20.09.2017 06:00:00 18,0 3,8 28 15 55 30 WSW 1014,0 - 0,0
20.09.2017 05:00:00 17,3 7,6 37 20 58 31 SW 1013,4 20 0,0
20.09.2017 04:00:00 16,6 9,0 30 16 53 29 SW 1013,5 - 0,0
20.09.2017 03:00:00 16,6 8,5 33 18 44 24 SW 1013,7 - 0,0
20.09.2017 02:00:00 16,4 8,1 20 11 29 15 WSW 1014,1 - 0,0
20.09.2017 01:00:00 16,2 10,5 20 11 29 16 SW 1013,9 - 0,0
20.09.2017 00:00:00 16,6 10,4 15 8 25 14 WSW 1013,9 - 0,0
19.09.2017 23:00:00 17,0 9,7 16 9 23 12 SW 1013,8 - 0,0
19.09.2017 22:00:00 17,0 6,5 7 4 18 10 WSW 1013,3 - 0,0
19.09.2017 21:00:00 17,1 6,6 13 7 50 27 S 1012,3 - 0,0
19.09.2017 20:00:00 17,2 7,3 36 19 53 29 SSW 1011,2 - 0,0
19.09.2017 19:00:00 16,9 7,0 27 15 59 32 SW 1011,6 - 0,0
19.09.2017 18:00:00 16,8 8,5 33 18 67 36 WSW 1011,5 - 0,0
19.09.2017 17:00:00 16,6 9,3 45 24 79 43 WSW 1010,6 25 0,0
19.09.2017 16:00:00 16,9 10,0 45 25 76 41 WSW 1010,4 - 0,0
19.09.2017 15:00:00 19,3 12,1 37 20 68 37 W 1010,4 - 0,0
19.09.2017 14:00:00 19,7 12,9 29 16 55 30 W 1011,5 25 0,0
19.09.2017 13:00:00 18,7 12,9 29 16 56 30 W 1011,6 - 0,0
19.09.2017 12:00:00 18,6 13,2 35 19 67 36 WSW 1011,9 - 0,0
19.09.2017 11:00:00 19,3 10,8 35 19 56 30 WSW 1011,2 25 0,0
19.09.2017 10:00:00 18,4 9,5 35 19 67 36 SW 1011,5 - 0,0
19.09.2017 09:00:00 16,3 9,2 31 17 49 27 SW 1011,7 - 0,0
19.09.2017 08:00:00 15,6 10,1 17 9 44 24 WSW 1012,0 18 0,0
19.09.2017 07:00:00 15,4 10,6 23 12 53 29 SW 1011,4 - 0,0
19.09.2017 06:00:00 15,8 11,2 31 17 60 32 SW 1011,6 - 0,0
19.09.2017 05:00:00 16,2 11,4 45 24 69 37 SW 1011,2 18 0,0
19.09.2017 04:00:00 16,0 11,4 44 24 66 36 WSW 1011,0 - 0,0
19.09.2017 03:00:00 15,6 11,2 40 21 67 36 SW 1011,6 - 0,0
19.09.2017 02:00:00 15,1 11,9 41 22 66 36 SW 1012,2 - 0,0
19.09.2017 01:00:00 15,0 11,9 27 14 51 28 SW 1012,6 - 0,0
19.09.2017 00:00:00 15,1 13,1 29 16 48 26 SW 1013,6 - 0,0
18.09.2017 23:00:00 14,7 13,6 25 14 36 19 WSW 1014,2 - 0,0
18.09.2017 22:00:00 14,6 13,6 19 10 30 16 WNW 1014,5 - 0,0
18.09.2017 21:00:00 14,7 13,9 8 5 11 6 NNE 1014,3 - 1,0
18.09.2017 20:00:00 15,5 14,9 2 1 26 14 SSW 1014,1 8 2,4
18.09.2017 19:00:00 15,7 15,2 10 5 27 14 WSW 1014,1 - 10,5
18.09.2017 18:00:00 15,7 15,2 12 7 52 28 WSW 1014,1 - 4,0
18.09.2017 17:00:00 15,8 15,0 34 18 61 33 WSW 1014,5 8 1,6
18.09.2017 16:00:00 17,4 16,1 31 17 55 30 W 1014,4 - 0,6
18.09.2017 15:00:00 18,6 15,7 34 18 61 33 W 1014,2 - 0,0
18.09.2017 14:00:00 20,9 13,3 23 13 52 28 W 1014,4 25 0,0
18.09.2017 13:00:00 21,6 13,5 24 13 51 28 W 1014,9 - 0,0
18.09.2017 12:00:00 22,2 11,0 28 15 59 32 W 1015,2 - 0,0
18.09.2017 11:00:00 23,1 8,4 29 16 60 33 WSW 1015,2 25 0,0
18.09.2017 10:00:00 21,5 7,3 37 20 57 31 SW 1015,4 - 0,0
18.09.2017 09:00:00 19,9 6,6 34 18 65 35 SW 1015,4 - 0,0
18.09.2017 08:00:00 19,5 6,6 37 20 64 35 SSW 1015,1 25 0,0
18.09.2017 07:00:00 18,5 6,3 36 19 56 31 SW 1015,4 - 0,0
18.09.2017 06:00:00 18,3 6,5 36 19 54 29 SW 1015,4 - 0,0
18.09.2017 05:00:00 18,1 7,5 35 19 62 34 SW 1015,8 25 0,0
18.09.2017 04:00:00 18,0 8,8 34 18 61 33 SW 1016,1 - 0,0
18.09.2017 03:00:00 17,9 9,5 37 20 64 34 SW 1016,4 - 0,0
18.09.2017 02:00:00 18,1 9,7 39 21 59 32 SW 1016,8 - 0,0
18.09.2017 01:00:00 18,2 9,3 38 20 81 44 WSW 1016,7 - 0,0
18.09.2017 00:00:00 18,1 8,9 46 25 74 40 SW 1016,8 - 0,0
17.09.2017 23:00:00 17,9 9,0 44 24 69 38 WSW 1016,7 - 0,0
17.09.2017 22:00:00 17,9 8,5 41 22 85 46 SW 1016,5 - 0,0
17.09.2017 21:00:00 17,9 8,7 56 30 87 47 SW 1015,9 - 0,0

tt = Température de l'air
td = dewpoint
ff = Vitesse du vent
fx = gusts
dd = Direction du vent
ppp = reduced air pressure
vv = visibility
rr = Quantités de précipitations

stations d'obs. à proximité